Lid_Strength_Index
11 10 11 11 10 10 11 10 12 11 11 9 8 5 5 7 7 7 7 6 5 5 4 3 3 2 3 3 4 4 4 3 2 1 2 2 2 2 2 2 3 2 2 2
12 12 13 13 10 9 9 9 9 9 10 6 6 6 7 8 7 7 7 6 5 4 4 4 3 4 4 5 5 4 4 4 3 3 3 2 2 2 3 3 2 2 2 2
16 13 13 17 11 10 9 8 8 11 9 6 8 6 8 8 7 7 6 6 5 4 4 3 3 4 5 5 5 4 4 4 4 3 3 2 3 3 3 3 2 2 2 2
17 15 20 13 7 8 9 8 7 8 7 7 7 7 7 6 6 6 6 6 5 4 3 3 4 5 5 5 5 5 4 4 4 3 3 3 3 3 3 2 2 2 3 3
17 17 15 13 11 11 10 10 7 7 7 7 7 7 8 6 5 5 5 5 4 3 3 4 5 5 5 5 5 5 4 4 4 3 3 3 3 3 3 3 3 3 3 3
16 19 21 14 10 8 8 15 9 7 8 8 8 12 10 6 5 5 5 5 5 5 5 5 5 5 5 6 5 5 5 4 4 3 3 3 3 2 2 3 3 3 3 3
16 17 15 11 8 7 17 15 8 7 7 8 8 6 6 5 7 7 7 6 6 5 5 5 4 5 6 5 5 4 4 4 3 3 3 2 2 2 3 3 3 3 3 3
15 17 19 8 9 13 10 8 8 7 6 7 6 6 7 7 8 9 8 7 6 5 5 4 5 5 5 5 4 4 4 3 3 3 3 3 3 3 3 3 3 3 3 3
13 14 9 8 8 8 7 8 7 7 6 5 5 5 6 7 8 9 8 7 5 5 5 5 5 4 5 4 4 3 3 3 3 3 4 4 3 3 4 3 3 3 3 3
12 10 10 8 8 8 7 6 6 5 5 5 5 5 5 6 7 8 8 6 5 6 6 5 5 4 4 4 4 3 4 4 4 4 4 4 3 3 4 4 4 3 4 3
11 10 10 7 9 9 8 6 6 5 5 6 5 6 5 6 8 8 7 5 5 6 5 6 5 4 4 4 3 3 3 4 4 5 4 4 4 5 5 7 8 5 5 5
13 10 11 11 9 8 7 6 6 6 6 6 6 7 7 8 8 7 7 6 5 5 6 5 5 5 4 4 3 4 5 4 5 4 5 4 5 6 11 10 11 12 12 10
10 8 9 8 8 7 7 6 7 7 6 7 8 7 7 8 7 7 6 5 6 5 5 5 5 5 4 3 4 4 5 5 5 5 5 4 4 5 6 9 11 11 13 13
7 7 9 9 10 8 6 6 7 7 6 7 8 7 7 7 6 6 6 6 5 5 5 5 5 5 4 4 4 4 4 8 5 5 4 4 4 4 5 7 7 8 12 13
8 8 9 9 9 7 7 6 7 8 8 8 8 9 8 8 7 7 6 6 6 6 6 6 6 5 4 4 4 4 4 5 4 4 4 5 4 5 5 6 8 8 10 12
8 8 9 10 11 10 9 7 8 9 8 9 9 9 8 9 9 9 8 8 9 9 8 7 7 7 5 4 4 4 4 9 7 4 5 5 5 5 6 7 8 9 8 8
10 12 11 11 12 11 11 10 9 8 9 9 10 10 10 10 10 11 11 11 10 10 9 9 8 7 6 6 6 6 5 5 10 5 5 5 5 5 6 7 7 7 7 9
10 10 10 11 11 12 12 11 11 9 9 9 10 10 10 11 12 13 13 12 11 10 10 9 7 6 6 5 5 5 5 5 5 5 5 5 5 5 6 7 7 6 8 10
9 10 11 11 11 11 12 12 11 11 10 10 11 12 12 12 13 13 12 12 13 13 11 9 12 8 6 8 7 5 5 5 5 5 5 9 6 6 6 6 6 7 8 9
8 10 10 11 11 11 12 12 12 13 12 11 12 13 14 14 14 13 13 14 12 12 10 10 8 8 7 9 10 5 5 5 5 6 6 6 6 6 6 9 7 7 8 9
7 8 10 11 12 12 12 12 12 14 14 13 14 14 14 15 15 14 15 15 14 12 11 11 8 8 7 9 8 5 5 6 6 6 7 7 7 7 7 8 8 8 8 9
5 6 7 8 10 12 13 13 14 14 14 14 14 15 15 15 15 15 15 15 14 15 11 9 9 13 9 14 6 6 6 6 6 7 7 7 7 7 8 8 8 8 9 9
4 5 6 6 7 9 10 11 13 14 15 15 16 15 15 16 15 16 16 15 14 14 12 12 15 15 15 9 7 7 7 7 7 7 7 7 7 8 9 9 9 9 8 9
4 5 5 6 6 7 10 12 12 13 14 15 15 15 15 15 15 15 15 15 15 14 12 12 12 15 16 9 9 7 7 7 7 7 8 11 8 9 9 9 9 9 9 10
4 4 5 5 6 7 9 11 13 13 14 14 14 14 14 13 14 14 13 13 15 13 11 15 15 15 10 10 9 7 7 7 7 7 9 8 9 9 9 9 8 9 9 10
4 4 4 5 5 6 8 10 12 12 13 13 13 13 12 12 13 12 13 13 12 13 12 11 11 11 11 10 9 8 8 8 8 8 8 9 9 9 9 8 9 10 10 10
3 5 4 5 5 6 6 8 10 11 11 12 13 12 12 12 12 12 13 12 12 12 12 11 11 12 10 10 10 9 10 9 10 9 8 8 8 8 9 9 9 10 10 10